TimeCDT,TemperatureF,Dew PointF,Humidity,Sea Level PressureIn,VisibilityMPH,Wind Direction,Wind SpeedMPH,Gust SpeedMPH,PrecipitationIn,Events,Conditions,WindDirDegrees,DateUTC
12:53 AM,73.0,71.1,93,30.26,8.0,North,3.5,-,N/A,,Clear,360,2013-07-17 05:53:00
1:53 AM,73.0,70.0,90,30.25,8.0,Calm,Calm,-,N/A,,Clear,0,2013-07-17 06:53:00
2:53 AM,72.0,70.0,93,30.25,7.0,Calm,Calm,-,N/A,,Clear,0,2013-07-17 07:53:00
3:53 AM,71.1,70.0,96,30.25,7.0,Calm,Calm,-,N/A,,Clear,0,2013-07-17 08:53:00
4:53 AM,71.1,70.0,96,30.26,7.0,Calm,Calm,-,N/A,,Clear,0,2013-07-17 09:53:00
5:53 AM,70.0,69.1,97,30.27,5.0,Calm,Calm,-,N/A,,Clear,0,2013-07-17 10:53:00
6:53 AM,73.0,71.1,93,30.29,7.0,Calm,Calm,-,N/A,,Clear,0,2013-07-17 11:53:00
7:53 AM,79.0,73.0,82,30.30,10.0,Calm,Calm,-,N/A,,Clear,0,2013-07-17 12:53:00
8:53 AM,82.9,73.0,72,30.29,10.0,Calm,Calm,-,N/A,,Clear,0,2013-07-17 13:53:00
9:53 AM,87.1,73.9,65,30.29,10.0,Calm,Calm,-,N/A,,Clear,0,2013-07-17 14:53:00
10:53 AM,90.0,73.0,57,30.29,10.0,Calm,Calm,-,N/A,,Clear,0,2013-07-17 15:53:00
11:53 AM,91.9,72.0,52,30.27,10.0,NE,4.6,-,N/A,,Clear,40,2013-07-17 16:53:00
12:53 PM,93.9,71.1,47,30.25,10.0,Variable,4.6,-,N/A,,Clear,0,2013-07-17 17:53:00
1:53 PM,96.1,71.1,44,30.22,10.0,North,6.9,-,N/A,,Clear,10,2013-07-17 18:53:00
2:53 PM,91.9,71.1,50,30.20,10.0,NNE,4.6,-,N/A,,Clear,20,2013-07-17 19:53:00
3:53 PM,96.1,70.0,43,30.17,10.0,NNE,5.8,-,N/A,,Scattered Clouds,20,2013-07-17 20:53:00
4:53 PM,89.1,73.0,59,30.16,10.0,North,3.5,-,N/A,,Clear,10,2013-07-17 21:53:00
5:53 PM,90.0,73.9,59,30.16,10.0,NE,4.6,-,N/A,,Clear,50,2013-07-17 22:53:00
6:53 PM,88.0,73.9,63,30.17,10.0,Calm,Calm,-,N/A,,Clear,0,2013-07-17 23:53:00
7:53 PM,84.0,75.9,76,30.16,10.0,Calm,Calm,-,N/A,,Clear,0,2013-07-18 00:53:00
8:53 PM,82.0,75.0,79,30.17,10.0,NNE,4.6,-,N/A,,Clear,20,2013-07-18 01:53:00
9:53 PM,80.1,75.0,85,30.17,10.0,NNE,4.6,-,N/A,,Clear,20,2013-07-18 02:53:00
10:53 PM,80.1,73.9,81,30.17,10.0,NNE,4.6,-,N/A,,Clear,30,2013-07-18 03:53:00
11:53 PM,78.1,73.9,87,30.16,10.0,Calm,Calm,-,N/A,,Clear,0,2013-07-18 04:53:00